Stations météo

réclame
Mon MeteoGroup
Idar-Oberstein, Allemagne (10618): Température de l'air & dewpoint: 13.07.2018 19:00:00 - 19.07.2018 19:00:00 (CEST)Idar-Oberstein, Allemagne (10618): Vitesse du vent: 13.07.2018 19:00:00 - 19.07.2018 19:00:00 (CEST)Idar-Oberstein, Allemagne (10618): Direction du vent: 13.07.2018 19:00:00 - 19.07.2018 19:00:00 (CEST)Idar-Oberstein, Allemagne (10618): reduced air pressure: 13.07.2018 19:00:00 - 19.07.2018 19:00:00 (CEST)Idar-Oberstein, Allemagne (10618): visibility: 13.07.2018 19:00:00 - 19.07.2018 19:00:00 (CEST)
Date & Time tt [°C] td [°C] ff [km/h] ff [knt] dd ppp [hPa] vv [km]
19.07.2018 19:00:00 26,5 8,5 7 4 NNE 1014,3 30
19.07.2018 18:00:00 26,8 8,4 7 4 NE 1014,7 30
19.07.2018 17:00:00 26,6 8,6 7 4 WNW 1015,2 30
19.07.2018 16:00:00 26,4 9,2 7 4 ENE 1015,7 30
19.07.2018 15:00:00 26,2 8,6 7 4 NNE 1016,0 30
19.07.2018 14:00:00 25,7 8,6 7 4 SW 1016,4 30
19.07.2018 13:00:00 24,8 9,3 11 6 NNE 1016,9 30
19.07.2018 12:00:00 23,0 9,6 14 8 NNE 1017,3 30
19.07.2018 11:00:00 22,4 10,8 11 6 NNE 1017,6 30
19.07.2018 10:00:00 20,6 10,8 7 4 NE 1018,1 30
19.07.2018 09:00:00 18,5 10,8 4 2 NNE 1018,4 30
19.07.2018 08:00:00 14,1 9,4 4 2 NW 1018,9 30
19.07.2018 07:00:00 11,6 9,4 4 2 SW 1019,2 30
19.07.2018 06:00:00 11,2 9,1 4 2 SSE 1019,3 30
19.07.2018 05:00:00 11,4 9,4 4 2 SSW 1019,3 30
19.07.2018 04:00:00 12,1 9,7 4 2 S 1019,3 30
19.07.2018 03:00:00 12,6 9,8 4 2 SSW 1019,3 30
19.07.2018 02:00:00 13,5 9,9 4 2 W 1019,0 30
19.07.2018 01:00:00 14,5 10,2 4 2 SSW 1018,7 30
19.07.2018 00:00:00 16,2 10,2 4 2 SE 1018,1 30
18.07.2018 23:00:00 18,4 10,0 4 2 N 1017,5 40
18.07.2018 22:00:00 20,5 9,8 7 4 NE 1016,8 40
18.07.2018 21:00:00 23,2 9,6 7 4 NNE 1016,0 40
18.07.2018 20:00:00 25,3 8,1 7 4 WNW 1015,5 40
18.07.2018 19:00:00 26,1 8,1 7 4 NNW 1015,3 40
18.07.2018 18:00:00 25,3 8,4 7 4 NW 1015,8 40
18.07.2018 17:00:00 25,5 8,6 7 4 NNW 1016,2 40
18.07.2018 16:00:00 25,9 8,4 7 4 NW 1016,3 40
18.07.2018 15:00:00 25,2 8,7 11 6 W 1016,6 40
18.07.2018 14:00:00 24,8 8,7 14 8 W 1016,9 40
18.07.2018 13:00:00 23,9 8,8 11 6 NNW 1017,2 40
18.07.2018 12:00:00 23,5 9,3 11 6 WNW 1017,6 40
18.07.2018 11:00:00 22,3 9,6 7 4 NNE 1018,1 40
18.07.2018 10:00:00 20,8 10,7 7 4 ENE 1018,3 30
18.07.2018 09:00:00 18,7 11,3 7 4 ENE 1018,6 30
18.07.2018 08:00:00 15,0 11,6 4 2 NNW 1019,1 30
18.07.2018 07:00:00 13,5 11,6 4 2 N 1019,2 30
18.07.2018 06:00:00 13,4 11,3 4 2 N 1018,9 20
18.07.2018 05:00:00 15,7 11,5 4 2 E 1018,4 20
18.07.2018 04:00:00 16,4 11,9 7 4 ENE 1018,4 20
18.07.2018 03:00:00 16,7 12,0 7 4 N 1018,2 20
18.07.2018 02:00:00 16,2 12,6 4 2 ENE 1018,1 20
18.07.2018 01:00:00 16,1 12,9 4 2 S 1017,8 20
18.07.2018 00:00:00 18,1 13,1 4 2 E 1017,4 30
17.07.2018 23:00:00 20,1 13,2 7 4 E 1016,9 30
17.07.2018 22:00:00 21,8 15,0 4 2 NNW 1016,0 30
17.07.2018 21:00:00 24,7 13,9 4 2 N 1014,7 30
17.07.2018 20:00:00 25,1 12,1 7 4 NNE 1014,1 30
17.07.2018 19:00:00 25,5 12,1 7 4 NE 1014,0 30
17.07.2018 18:00:00 25,2 12,1 7 4 NNE 1014,1 30
17.07.2018 17:00:00 27,1 11,4 14 8 W 1013,6 40
17.07.2018 16:00:00 26,0 11,3 14 8 W 1013,9 40
17.07.2018 15:00:00 28,1 10,1 18 10 W 1013,2 40
17.07.2018 14:00:00 27,3 7,7 11 6 WNW 1013,6 40
17.07.2018 13:00:00 27,1 8,4 11 6 WNW 1013,8 40
17.07.2018 12:00:00 26,6 9,0 7 4 WNW 1013,7 40
17.07.2018 11:00:00 25,0 13,9 7 4 SSW 1013,7 40
17.07.2018 10:00:00 21,6 15,1 4 2 W 1014,1 40
17.07.2018 09:00:00 16,2 13,4 4 2 W 1014,8 35
17.07.2018 08:00:00 13,4 11,7 7 4 W 1015,4 25
17.07.2018 07:00:00 12,0 11,1 7 4 SSW 1015,3 20
17.07.2018 06:00:00 11,7 10,9 7 4 SW 1015,0 15
17.07.2018 05:00:00 11,8 11,2 7 4 SW 1014,7 10
17.07.2018 04:00:00 12,5 11,9 7 4 SW 1014,6 20
17.07.2018 03:00:00 13,3 12,7 7 4 SSW 1014,3 20
17.07.2018 02:00:00 13,8 13,2 7 4 SSW 1014,5 20
17.07.2018 01:00:00 15,1 14,1 4 2 N 1014,2 30
17.07.2018 00:00:00 15,2 13,6 4 2 N 1014,0 30
16.07.2018 23:00:00 17,0 12,9 7 4 SSE 1013,3 30
16.07.2018 22:00:00 18,2 13,4 7 4 SE 1012,7 30
16.07.2018 21:00:00 21,0 15,4 7 4 N 1011,6 40
16.07.2018 20:00:00 22,6 15,1 4 2 N 1011,1 40
16.07.2018 19:00:00 23,5 14,4 7 4 WSW 1010,9 40
16.07.2018 18:00:00 21,6 16,5 7 4 SW 1011,4 40
16.07.2018 17:00:00 18,4 16,0 7 4 N 1012,4 40
16.07.2018 16:00:00 22,3 11,8 14 8 N 1012,3 15
16.07.2018 15:00:00 23,0 13,9 11 6 SSE 1011,6 40
16.07.2018 14:00:00 26,2 13,3 11 6 E 1011,7 40
16.07.2018 13:00:00 25,5 12,7 7 4 WNW 1012,0 40
16.07.2018 12:00:00 24,0 13,1 7 4 SW 1012,6 40
16.07.2018 11:00:00 22,3 13,1 7 4 SW 1013,2 40
16.07.2018 10:00:00 20,3 13,8 7 4 SW 1013,7 40
16.07.2018 09:00:00 17,0 13,6 7 4 N 1014,4 40
16.07.2018 08:00:00 13,3 13,1 7 4 WSW 1015,2 40
16.07.2018 07:00:00 11,3 11,3 7 4 WSW 1015,6 0,2
16.07.2018 06:00:00 11,0 10,6 4 2 S 1015,6 1,5
16.07.2018 05:00:00 12,1 11,6 0 0 N 1015,4 10
16.07.2018 04:00:00 12,8 12,3 7 4 SW 1015,6 10
16.07.2018 03:00:00 13,3 12,5 4 2 N 1015,4 10
16.07.2018 02:00:00 14,2 13,3 4 2 N 1015,4 20
16.07.2018 01:00:00 14,6 13,4 4 2 N 1015,8 20
16.07.2018 00:00:00 14,9 13,2 4 2 N 1015,5 20
15.07.2018 23:00:00 15,3 13,7 7 4 SE 1015,5 25
15.07.2018 22:00:00 15,9 14,5 7 4 SW 1015,5 25
15.07.2018 21:00:00 16,5 15,1 7 4 SSE 1015,0 25
15.07.2018 20:00:00 16,5 15,0 11 6 W 1015,0 25
15.07.2018 19:00:00 16,3 14,4 7 4 ESE 1015,4 12
15.07.2018 18:00:00 17,4 12,5 11 6 ENE 1015,1 10
15.07.2018 17:00:00 19,9 15,0 7 4 SSW 1014,2 20
15.07.2018 16:00:00 25,4 11,9 7 4 NW 1012,8 30
15.07.2018 15:00:00 26,6 12,4 7 4 E 1013,2 30
15.07.2018 14:00:00 25,9 12,2 7 4 ENE 1014,2 30
15.07.2018 13:00:00 23,9 12,9 14 8 ENE 1015,3 25
15.07.2018 12:00:00 22,2 13,4 7 4 NE 1016,0 25
15.07.2018 11:00:00 21,3 14,3 11 6 ENE 1016,4 20
15.07.2018 10:00:00 19,0 14,8 4 2 N 1016,6 20
15.07.2018 09:00:00 16,9 14,0 7 4 NNE 1017,1 20
15.07.2018 08:00:00 16,5 13,1 7 4 W 1017,3 20
15.07.2018 07:00:00 14,1 12,0 4 2 SW 1017,1 20
15.07.2018 06:00:00 13,2 11,7 4 2 N 1017,3 20
15.07.2018 05:00:00 13,9 11,8 4 2 SSW 1017,5 18
15.07.2018 04:00:00 14,5 11,9 4 2 N 1017,6 18
15.07.2018 03:00:00 15,9 12,1 0 0 N 1017,5 20
15.07.2018 02:00:00 16,2 12,7 4 2 NW 1017,8 25
15.07.2018 01:00:00 18,0 11,8 4 2 E 1017,6 25
15.07.2018 00:00:00 19,4 11,9 7 4 ESE 1017,3 25
14.07.2018 23:00:00 20,8 12,0 4 2 N 1017,1 30
14.07.2018 22:00:00 21,5 12,2 7 4 N 1016,6 30
14.07.2018 21:00:00 23,8 12,1 11 6 NNE 1015,8 35
14.07.2018 20:00:00 25,7 11,3 11 6 ENE 1015,2 35
14.07.2018 19:00:00 27,3 11,4 11 6 NNW 1015,2 35
14.07.2018 18:00:00 26,4 10,5 4 2 NE 1015,7 35
14.07.2018 17:00:00 26,6 10,7 4 2 SW 1016,0 30
14.07.2018 16:00:00 27,6 10,3 11 6 W 1016,1 30
14.07.2018 15:00:00 27,1 9,8 7 4 NNW 1016,5 30
14.07.2018 14:00:00 26,2 10,1 4 2 SW 1017,3 30
14.07.2018 13:00:00 26,1 11,6 7 4 E 1017,7 30
14.07.2018 12:00:00 24,6 11,4 7 4 NE 1018,4 30
14.07.2018 11:00:00 22,9 11,6 7 4 NNE 1018,9 25
14.07.2018 10:00:00 21,3 12,3 7 4 NE 1019,4 25
14.07.2018 09:00:00 16,5 13,2 7 4 SW 1020,2 20
14.07.2018 08:00:00 14,7 12,1 4 2 W 1020,2 20
14.07.2018 07:00:00 13,6 11,6 4 2 SSE 1020,4 20
14.07.2018 06:00:00 12,4 11,3 4 2 SW 1020,3 20
14.07.2018 05:00:00 12,8 11,5 4 2 S 1020,3 20
14.07.2018 04:00:00 13,3 11,7 4 2 SW 1020,1 20
14.07.2018 03:00:00 14,0 12,0 4 2 SSW 1020,2 22
14.07.2018 02:00:00 13,7 11,7 7 4 SW 1020,4 22
14.07.2018 01:00:00 15,1 12,0 4 2 N 1020,3 22
14.07.2018 00:00:00 16,4 12,2 7 4 SE 1020,0 25
13.07.2018 23:00:00 18,1 11,9 4 2 N 1019,6 25
13.07.2018 22:00:00 20,1 11,5 4 2 E 1019,0 30
13.07.2018 21:00:00 21,6 10,7 4 2 E 1018,4 30
13.07.2018 20:00:00 22,7 9,9 7 4 N 1018,2 30
13.07.2018 19:00:00 23,8 11,2 11 6 NNW 1018,0 30

tt = Température de l'air
td = dewpoint
ff = Vitesse du vent
dd = Direction du vent
ppp = reduced air pressure
vv = visibility

stations d'obs. à proximité